| time (UTC) | temp F | wind direction | speed knots | gust knots | rain 1hr in | rain 24hr in | rain mn in | humidity % | barometer mb |
| 20260505010053 | 70 | 156 | 3.5 | 7.0 | 0.00 | 0.00 | 0.00 | 53 | 1004.0 |
| 20260505004549 | 71 | 226 | 2.6 | 7.0 | 0.00 | 0.00 | 0.00 | 52 | 1003.9 |
| 20260505003048 | 71 | 184 | 3.5 | 8.7 | 0.00 | 0.00 | 0.00 | 51 | 1003.9 |
| 20260505001546 | 72 | 145 | 2.6 | 7.8 | 0.00 | 0.00 | 0.00 | 52 | 1004.0 |
| 20260505000049 | 72 | 215 | 3.5 | 7.8 | 0.00 | 0.00 | 0.00 | 52 | 1004.2 |
| 20260504234544 | 73 | 132 | 1.7 | 9.6 | 0.00 | 0.00 | 0.00 | 51 | 1004.4 |
| 20260504233044 | 73 | 197 | 6.1 | 10.4 | 0.00 | 0.00 | 0.00 | 51 | 1004.5 |
| 20260504231542 | 73 | 163 | 2.6 | 7.0 | 0.00 | 0.00 | 0.00 | 51 | 1004.6 |
| 20260504230040 | 73 | 189 | 3.5 | 7.0 | 0.00 | 0.00 | 0.00 | 51 | 1004.7 |
| 20260504224537 | 73 | 225 | 4.3 | 8.7 | 0.00 | 0.00 | 0.00 | 51 | 1004.9 |
| 20260504223035 | 72 | 175 | 4.3 | 9.6 | 0.00 | 0.00 | 0.00 | 53 | 1005.2 |
| 20260504221536 | 72 | 178 | 2.6 | 10.4 | 0.00 | 0.00 | 0.00 | 53 | 1005.3 |
| 20260504220031 | 71 | 196 | 2.6 | 8.7 | 0.00 | 0.00 | 0.00 | 55 | 1005.1 |
| 20260504214530 | 70 | 211 | 2.6 | 8.7 | 0.00 | 0.00 | 0.00 | 54 | 1005.2 |
| 20260504213027 | 71 | 169 | 4.3 | 12.2 | 0.00 | 0.00 | 0.00 | 53 | 1005.8 |
| 20260504211526 | 71 | 164 | 5.2 | 15.6 | 0.00 | 0.00 | 0.00 | 54 | 1005.8 |
| 20260504210024 | 69 | 207 | 4.3 | 8.7 | 0.00 | 0.00 | 0.00 | 60 | 1006.1 |
| 20260504204522 | 68 | 147 | 4.3 | 11.3 | 0.00 | 0.00 | 0.00 | 62 | 1006.0 |
| 20260504203018 | 67 | 80 | 0.9 | 7.0 | 0.00 | 0.00 | 0.00 | 62 | 1006.5 |
| 20260504201517 | 67 | 199 | 3.5 | 12.2 | 0.00 | 0.00 | 0.00 | 62 | 1007.0 |
| 20260504200033 | 67 | 200 | 6.1 | 14.8 | 0.00 | 0.00 | 0.00 | 61 | 1006.9 |
| 20260504194520 | 67 | 214 | 5.2 | 11.3 | 0.00 | 0.00 | 0.00 | 62 | 1006.9 |
| 20260504193014 | 67 | 157 | 4.3 | 10.4 | 0.00 | 0.00 | 0.00 | 62 | 1006.9 |
| 20260504191527 | 67 | 142 | 3.5 | 10.4 | 0.00 | 0.00 | 0.00 | 63 | 1007.5 |
| 20260504190014 | 67 | 219 | 5.2 | 10.4 | 0.00 | 0.00 | 0.00 | 61 | 1007.9 |
| 20260504184515 | 69 | 187 | 7.0 | 15.6 | 0.00 | 0.00 | 0.00 | 57 | 1008.1 |
| 20260504183024 | 69 | 194 | 7.0 | 13.9 | 0.00 | 0.00 | 0.00 | 59 | 1007.9 |
| 20260504181522 | 69 | 234 | 7.8 | 13.0 | 0.00 | 0.00 | 0.00 | 58 | 1007.5 |
| 20260504180009 | 69 | 189 | 7.0 | 15.6 | 0.00 | 0.00 | 0.00 | 58 | 1007.3 |
| 20260504174507 | 68 | 197 | 6.1 | 13.0 | 0.00 | 0.00 | 0.00 | 59 | 1006.9 |
| 20260504173004 | 67 | 190 | 6.1 | 12.2 | 0.00 | 0.00 | 0.00 | 60 | 1007.1 |
| 20260504171502 | 68 | 196 | 4.3 | 11.3 | 0.00 | 0.00 | 0.00 | 60 | 1007.3 |
| 20260504170110 | 67 | 149 | 7.0 | 13.0 | 0.00 | 0.00 | 0.00 | 60 | 1007.5 |
| 20260504081544 | 49 | 154 | 0.0 | 1.7 | 0.00 | 0.00 | 0.00 | 70 | 1010.2 |
| 20260504050016 | 53 | 171 | 0.9 | 2.6 | 0.00 | 0.00 | 0.00 | 61 | 1011.9 |
| 20260504044520 | 53 | 195 | 1.7 | 6.1 | 0.00 | 0.00 | 0.00 | 60 | 1012.0 |
| 20260504043011 | 54 | 185 | 0.9 | 4.3 | 0.00 | 0.00 | 0.00 | 58 | 1012.1 |
| 20260504041506 | 54 | 284 | 0.0 | 5.2 | 0.00 | 0.00 | 0.00 | 58 | 1012.2 |
| 20260504040003 | 55 | 163 | 0.9 | 6.1 | 0.00 | 0.00 | 0.00 | 57 | 1012.4 |
| 20260504034502 | 55 | 165 | 1.7 | 5.2 | 0.00 | 0.00 | 0.00 | 56 | 1012.5 |
| 20260504033002 | 55 | 151 | 0.0 | 3.5 | 0.00 | 0.00 | 0.00 | 55 | 1012.6 |
| 20260504031501 | 55 | 178 | 0.9 | 2.6 | 0.00 | 0.00 | 0.00 | 54 | 1012.6 |
| 20260504030105 | 55 | 169 | 0.9 | 4.3 | 0.00 | 0.00 | 0.00 | 54 | 1012.8 |
| 20260504024559 | 55 | 205 | 1.7 | 6.1 | 0.00 | 0.00 | 0.00 | 54 | 1012.8 |
| 20260504023105 | 55 | 192 | 0.9 | 2.6 | 0.00 | 0.00 | 0.00 | 55 | 1013.0 |
| 20260504021559 | 53 | 193 | 0.9 | 3.5 | 0.00 | 0.00 | 0.00 | 59 | 1013.0 |
| 20260504014558 | 51 | 90 | 0.0 | 0.0 | 0.00 | 0.00 | 0.00 | 75 | 1013.1 |
| 20260504013109 | 51 | 90 | 0.0 | 0.0 | 0.00 | 0.00 | 0.00 | 74 | 1012.9 |
| 20260504011557 | 51 | 90 | 0.0 | 0.0 | 0.00 | 0.00 | 0.00 | 72 | 1012.9 |